This demonstration page uses our WeatherBlox Daily Observations layout. Learn more.

Left ArrowRight Arrow

Hourly Observations for July 23, 2019

Temp ( °F °C ) Dew Point ( °F °C ) Humidity (%) Winds ( mph kmh ) Pressure ( in mb ) Visibility ( mi km ) Precip ( " mm )
12:56 am 00:56 Clear 62 16.7 59 15 90 90 NW 3 6 30.31 1026 10 16 0.00 0.00
1:56 am 01:56 Clear 61 16.1 57 13.9 87 87 NW 3 6 30.30 1026 10 16 0.00 0.00
2:56 am 02:56 Clear 60 15.6 56 13.3 86 86 Calm 30.30 1026 10 16 0.00 0.00
3:56 am 03:56 Clear 59 15 57 13.9 93 93 NW 3 6 30.29 1026 10 16 0.00 0.00
4:56 am 04:56 Clear 56 13.3 54 12.2 93 93 N 3 6 30.30 1026 10 16 0.00 0.00
5:56 am 05:56 Clear 56 13.3 55 12.8 97 97 NW 3 6 30.31 1026 10 16 0.00 0.00
6:56 am 06:56 Sunny 56 13.3 53 11.7 90 90 NW 3 6 30.32 1027 10 16 0.00 0.00
7:56 am 07:56 Sunny 60 15.6 57 13.9 90 90 WNW 3 6 30.32 1027 10 16 0.00 0.00
8:56 am 08:56 Sunny 66 18.9 58 14.4 75 75 SW 5 7 30.32 1027 10 16 0.00 0.00
9:56 am 09:56 Sunny 69 20.6 59 15 70 70 S 7 11 30.32 1027 10 16 0.00 0.00
10:56 am 10:56 Sunny 71 21.7 58 14.4 63 63 VRB 3 6 30.31 1026 10 16 0.00 0.00
11:56 am 11:56 Sunny 73 22.8 54 12.2 51 51 SE 5 7 30.30 1026 10 16 0.00 0.00
12:56 pm 12:56 Mostly Sunny 74 23.3 55 12.8 52 52 Calm 30.28 1026 10 16 0.00 0.00
1:56 pm 13:56 Sunny 75 23.9 56 13.3 52 52 ESE 6 9 30.27 1025 10 16 0.00 0.00
2:56 pm 14:56 Sunny 76 24.4 56 13.3 50 50 Calm 30.25 1025 10 16 0.00 0.00
3:56 pm 15:56 Sunny 77 25 58 14.4 52 52 E 7 11 30.24 1024 10 16 0.00 0.00
4:56 pm 16:56 Sunny 76 24.4 57 13.9 52 52 SSE 7 11 30.22 1023 10 16 0.00 0.00
5:56 pm 17:56 Mostly Sunny 77 25 59 15 54 54 SE 5 7 30.21 1023 10 16 0.00 0.00
6:56 pm 18:56 Mostly Sunny 76 24.4 60 15.6 58 58 ESE 8 13 30.20 1023 10 16 0.00 0.00
7:56 pm 19:56 Sunny 73 22.8 60 15.6 64 64 ESE 9 15 30.19 1022 10 16 0.00 0.00
8:56 pm 20:56 Sunny 68 20 61 16.1 78 78 ESE 8 13 30.19 1023 10 16 0.00 0.00
9:56 pm 21:56 Clear 66 18.9 61 16.1 84 84 ESE 7 11 30.20 1023 10 16 0.00 0.00
10:56 pm 22:56 Mostly Clear 64 17.8 60 15.6 87 87 SE 7 11 30.21 1023 10 16 0.00 0.00
11:56 pm 23:56 Clear 63 17.2 58 14.4 84 84 SE 8 13 30.21 1023 10 16 0.00 0.00

Powered by AerisWeather